Volver al catálogo

BREEZE-M DEB

LostHEO
NORAD 32044·DEBRIS·🇷🇺 Russia

Lanzado Feb 28, 2006 desde Baikonur Cosmodrome

Loading…

Próximos Pases (próximas 24 horas)

TLE

ObsoletoSource: Space-Track

Época: Nov 24, 2018, 02:14 UTC

1 32044U 06006X   18328.09363565  .00000014  00000-0  00000+0 0  9998
2 32044  50.8728 234.4888 4970865 298.7458  20.4815  4.79852108205487

Sigue BREEZE-M DEB en tiempo real con AllMySat

Download on the App Store